Location: Fort Wayne
(41.1310°N, 85.1290°W)
Time: 04:51:20
(UTC-05:00)

Cosmos 1000 Rocket - Visible Passes

Search period start: 20 February 2018 00:00
Search period end: 02 March 2018 00:00
Orbit: 955 x 991 km, 82.9° (Epoch: 19 February)

Date Brightness Start Highest point End Pass type
(mag) Time Alt. Az. Time Alt. Az. Time Alt. Az.
20 Feb 5.9 04:18:48 10° N 04:24:27 34° ENE 04:30:01 10° SE visible
20 Feb 5.0 06:04:08 10° NNW 06:09:43 35° W 06:15:14 10° SSW visible
20 Feb 7.2 19:35:33 10° WSW 19:39:32 17° WNW 19:43:30 10° NNW visible
21 Feb 4.9 04:43:07 10° N 04:49:19 61° E 04:55:24 10° SSE visible
21 Feb 5.6 06:29:44 10° NW 06:34:00 20° W 06:38:15 10° SW visible
22 Feb 6.9 03:24:10 10° NNE 03:27:56 16° ENE 03:31:39 10° ESE visible
22 Feb 4.3 05:07:43 10° N 05:13:59 77° W 05:20:09 10° S visible
23 Feb 6.2 03:47:43 10° NNE 03:53:02 29° ENE 03:58:17 10° SE visible
23 Feb 4.7 05:32:41 10° NNW 05:38:30 43° W 05:44:15 10° SSW visible
23 Feb 7.1 19:03:28 10° WSW 19:08:04 21° WNW 19:12:40 10° NNW visible
24 Feb 5.2 04:11:54 10° N 04:17:57 50° ENE 04:23:55 10° SSE visible
24 Feb 5.4 05:58:03 10° NNW 06:02:51 24° W 06:07:36 10° SW visible
24 Feb 7.5 19:31:27 10° W 19:33:18 11° WNW 19:35:08 10° NW visible
25 Feb 7.1 02:53:36 10° NE 02:56:25 13° ENE 02:57:04 13° ENE visible
25 Feb 4.6 04:36:25 10° N 04:49:48 - S 04:41:32 62° N visible
25 Feb 6.1 06:24:30 10° NW 06:26:01 12° WNW 06:26:01 12° WNW visible
26 Feb 6.5 03:16:42 10° NNE 03:20:10 22° NE 03:20:10 22° NE visible
26 Feb 5.4 05:01:15 10° NNW 05:04:42 33° NW 05:04:42 33° NW visible
27 Feb 6.1 03:40:43 10° N 03:43:48 27° NNE 03:43:48 27° NNE visible
27 Feb 6.0 05:26:27 10° NNW 05:28:21 18° NW 05:28:21 18° NW visible
27 Feb 7.3 18:58:37 10° W 19:01:46 14° WNW 19:04:56 10° NW visible
28 Feb 6.0 04:05:08 10° N 04:07:40 26° N 04:07:40 26° N visible
01 Mar 7.0 02:45:46 10° NNE 02:47:07 14° NE 02:47:07 14° NE visible
01 Mar 6.2 04:29:51 10° NNW 04:31:41 20° NNW 04:31:41 20° NNW visible
